Location: Caracas
(10.5033°N, 66.8422°W)
Time: 00:58:16
(UTC-04:00)

Envisat - Visible Passes

Search period start: 23 February 2018 00:00
Search period end: 05 March 2018 00:00
Orbit: 764 x 766 km, 98.2° (Epoch: 22 February)

Date Brightness Start Highest point End Pass type
(mag) Time Alt. Az. Time Alt. Az. Time Alt. Az.
23 Feb 2.8 20:11:17 10° SSE 20:16:20 75° ENE 20:21:23 10° N visible
24 Feb 3.8 19:35:34 10° SE 19:39:45 26° ENE 19:43:56 10° NNE visible
24 Feb 5.4 21:15:04 10° SW 21:18:39 19° W 21:22:02 10° NW visible
25 Feb 3.6 20:36:56 10° S 20:41:51 52° WSW 20:46:47 10° NNW visible
26 Feb 3.0 20:00:18 10° SSE 20:05:14 54° ENE 20:10:10 10° N visible
27 Feb 4.2 19:26:50 16° ESE 19:28:41 20° ENE 19:32:15 10° NNE visible
27 Feb 5.0 21:03:18 10° SSW 21:07:25 25° W 21:11:32 10° NW visible
28 Feb 3.1 20:25:42 10° S 20:30:44 72° WSW 20:35:47 10° NNW visible
01 Mar 3.3 19:52:39 32° ESE 19:54:08 40° ENE 19:58:50 10° N visible
01 Mar 5.9 21:32:51 12° W 21:32:59 12° W 21:34:49 10° WNW visible
02 Mar 4.5 19:15:27 11° ESE 19:17:37 14° ENE 19:20:18 10° NE visible
02 Mar 4.5 20:55:41 33° WSW 20:56:17 34° W 21:00:50 10° NW visible
03 Mar 2.8 20:18:30 55° SSE 20:19:38 84° ENE 20:24:42 10° N visible
04 Mar 3.7 19:41:19 24° ESE 19:43:03 30° ENE 19:47:24 10° NNE visible
04 Mar 5.5 21:21:31 16° WSW 21:21:51 17° W 21:24:59 10° WNW visible
